Simultaneous Nadir Overpasses (SNOs) Predictions

Prediction of SNOs between AQUA and NPP Satellite Orbit:

Table of predicted SNOs for the next 14.0 days since TLE Epoch: 6/1/2012
Index Date (AQUA) Time (AQUA) Lat,Lon (AQUA) SZA (AQUA ) Date (NPP) Time (NPP) Lat,Lon (NPP) SZA (NPP ) Distance(km) Time Diff (sec)
1 06/03/2012 14:54:46 -76.43, 16.63 105.30 06/03/2012 14:53:49 -76.43, 16.60 105.25 0.94 57
2 06/03/2012 15:43:53 77.30,-172.58 73.64 06/03/2012 15:44:13 77.30,-172.59 73.63 0.43 20
3 06/06/2012 07:11:09 -76.67, 133.32 105.85 06/06/2012 07:10:35 -76.66, 133.25 105.81 1.90 34
4 06/06/2012 08:00:18 77.44, -56.16 73.21 06/06/2012 08:01:01 77.44, -56.21 73.19 1.41 43
5 06/08/2012 23:27:32 -76.94,-109.86 106.38 06/08/2012 23:27:21 -76.93,-109.91 106.36 1.25 11
6 06/09/2012 00:16:41 77.69, 60.78 72.68 06/09/2012 00:17:47 77.69, 60.75 72.63 0.74 66
7 06/11/2012 14:54:44 76.39,-163.50 74.11 06/11/2012 14:53:39 76.39,-163.51 74.17 0.39 65
8 06/11/2012 15:43:53 -77.27, 7.29 106.96 06/11/2012 15:44:05 -77.28, 7.33 106.98 1.06 12
9 06/14/2012 07:11:09 76.53, -47.16 73.83 06/14/2012 07:10:28 76.52, -47.26 73.89 2.85 41




NCC Satellite Simultaneous Nadir Overpasses (SNOs) Prediction Service
